Temp
85 85 86 87 86 89 83 82 84 85 84 84 86 85 85 86 86 87 88 75 74 74 75 77 77 77 78 77 76 76 75 75 75 74 73 72 72 74 75 75 74 74 74
86 86 85 85 87 86 84 84 83 85 82 86 85 84 84 85 86 85 88 81 74 74 75 76 77 77 78 78 77 76 75 75 74 74 73 72 74 75 74 75 74 74 73
84 83 85 85 86 85 82 83 84 80 84 85 83 84 82 81 84 84 85 84 79 73 74 75 76 77 78 78 77 76 75 75 74 74 73 70 72 73 72 73 73 74 73
83 82 86 85 86 85 84 85 81 83 83 83 78 75 78 82 84 82 81 84 81 84 75 75 75 76 77 78 78 77 76 75 74 73 73 73 72 71 70 70 70 73 72
82 83 84 85 83 85 84 82 82 81 80 79 80 75 78 84 83 84 82 81 82 83 84 76 75 75 76 77 78 77 76 74 73 73 73 73 73 71 71 70 70 73 72
82 80 83 83 83 84 83 82 79 81 76 77 79 81 81 81 82 82 81 80 80 80 83 83 82 82 75 76 77 77 76 75 74 73 73 72 71 72 71 70 71 72 70
80 79 83 82 81 82 79 78 77 77 77 76 77 79 81 81 78 81 82 77 78 81 82 80 82 79 81 75 75 76 77 76 75 74 73 71 72 71 71 72 71 70 69
80 80 80 81 79 81 77 75 77 78 75 74 76 74 73 76 79 78 79 77 77 79 80 79 81 79 77 84 81 74 76 76 75 75 72 71 71 71 71 72 71 70 69
80 79 79 81 79 80 77 77 76 77 72 73 73 74 73 70 72 76 73 74 74 73 75 77 78 79 79 84 80 77 73 74 76 75 73 71 71 72 72 71 69 68 67
77 76 76 80 78 81 80 79 77 80 76 71 73 74 76 75 71 65 73 73 72 72 73 75 76 77 72 75 81 77 71 72 75 74 73 72 73 73 72 69 67 67 65
76 78 80 78 78 83 79 79 78 77 75 78 79 76 73 74 73 69 64 66 68 71 72 73 75 73 69 72 84 77 70 70 71 71 71 72 73 72 70 68 68 67 67
75 79 80 80 80 81 78 79 78 76 76 77 79 77 71 71 73 67 65 66 67 70 75 77 72 74 73 82 81 67 68 67 67 67 68 70 71 69 69 70 70 70 69
78 77 80 79 78 78 79 79 77 77 76 76 74 76 77 77 77 69 66 67 68 66 64 67 72 74 81 82 82 74 68 66 64 63 65 66 68 68 68 70 69 69 69
81 79 79 79 80 80 79 77 78 78 77 76 73 73 74 75 79 69 68 66 62 59 63 65 69 75 78 80 76 68 75 63 62 62 62 64 65 66 66 66 66 67 67
81 80 80 79 79 79 78 76 79 76 77 73 72 72 71 72 79 74 69 69 60 57 60 64 68 74 75 77 74 80 78 61 62 61 61 62 63 63 63 64 64 65 66
80 79 79 78 78 78 78 76 78 76 73 72 75 73 72 73 77 64 74 66 63 63 59 68 70 74 75 75 74 78 75 64 61 61 62 61 61 61 61 61 62 62 63
79 79 79 78 78 78 77 75 75 75 73 73 75 74 73 75 76 77 77 72 68 68 65 67 70 69 70 71 74 72 70 68 64 61 61 60 58 58 59 60 60 61 62
80 80 80 80 80 79 77 77 76 77 73 70 75 75 74 76 75 74 72 72 72 72 70 66 62 62 64 69 67 66 65 65 65 61 59 58 57 57 57 57 58 58 58
79 80 80 80 80 80 78 77 76 74 68 72 74 75 75 74 73 73 72 72 74 72 71 67 59 60 60 63 62 62 62 61 61 60 57 56 55 56 56 56 56 55 55
79 79 80 81 80 79 79 77 73 74 73 74 75 77 77 76 74 73 73 73 72 70 70 63 58 59 58 59 59 57 57 59 58 59 57 58 58 55 55 55 56 56 53
80 81 80 79 79 78 79 75 75 74 68 71 73 77 77 71 63 68 74 72 70 68 66 61 58 58 57 57 56 58 57 57 57 59 60 59 60 61 59 57 59 56 53
79 80 79 79 76 79 50 50 60 69 72 72 72 73 72 65 62 57 57 60 66 70 66 63 58 56 56 56 57 57 57 55 54 59 56 55 61 58 61 63 55 52 51
76 76 77 77 76 74 48 48 53 67 67 68 67 67 71 69 66 68 55 54 55 55 62 67 59 60 59 60 59 58 59 58 57 57 61 52 59 58 61 60 51 50 50
74 73 75 76 75 69 49 48 52 67 64 64 66 68 70 67 67 69 68 67 68 69 68 69 64 62 61 61 64 62 60 56 58 59 60 51 61 64 69 68 51 50 49
73 74 76 75 74 69 48 48 58 63 61 60 62 66 69 66 50 52 70 64 61 59 52 53 52 49 47 49 56 64 57 56 54 55 63 58 58 63 69 69 66 50 48
74 79 75 74 60 68 47 49 58 63 61 61 61 64 52 58 45 49 66 63 58 59 60 57 55 51 54 52 53 61 60 57 59 58 65 64 66 69 67 73 73 66 64
MSLP
1008.57 1009.19 1009.40 1009.55 1010.14 1010.30 1010.89 1011.32 1010.65 1011.48 1011.59 1011.85 1011.96 1012.05 1012.06 1011.92 1012.01 1012.01 1011.67 1012.70 1013.30 1013.55 1013.53 1013.49 1013.48 1013.56 1013.80 1014.09 1014.30 1014.53 1014.76 1015.04 1015.36 1015.52 1015.83 1016.52 1016.68 1016.82 1017.03 1017.33 1017.85 1018.19 1018.57
1007.76 1008.29 1008.82 1009.21 1009.29 1009.57 1010.06 1010.36 1010.81 1010.48 1011.33 1011.23 1011.49 1011.80 1011.99 1011.77 1011.63 1011.72 1011.45 1011.83 1012.62 1013.05 1013.11 1013.16 1013.18 1013.25 1013.37 1013.70 1014.03 1014.37 1014.56 1014.80 1015.15 1015.37 1015.69 1016.05 1016.32 1016.61 1017.03 1017.29 1017.74 1018.15 1018.53
1007.17 1007.72 1008.07 1008.42 1008.74 1009.15 1009.64 1010.10 1010.45 1011.02 1010.58 1010.79 1011.13 1011.32 1011.56 1011.86 1011.50 1011.43 1011.54 1011.44 1011.69 1012.21 1012.62 1012.74 1012.87 1012.90 1013.03 1013.30 1013.72 1014.13 1014.40 1014.68 1015.02 1015.27 1015.63 1016.39 1016.68 1016.99 1017.16 1017.64 1018.07 1018.29 1018.49
1006.78 1007.18 1007.24 1007.74 1008.05 1008.55 1009.13 1009.45 1010.23 1010.36 1010.46 1010.38 1010.96 1011.64 1011.78 1011.37 1011.01 1011.20 1011.60 1011.26 1011.21 1011.10 1011.80 1012.04 1012.38 1012.56 1012.71 1012.97 1013.33 1013.82 1014.17 1014.42 1014.78 1015.11 1015.50 1015.87 1016.50 1016.80 1017.15 1017.65 1017.35 1018.13 1018.41
1006.16 1006.54 1006.87 1007.11 1007.63 1008.08 1008.57 1009.16 1009.68 1009.88 1009.89 1010.37 1010.70 1011.36 1011.29 1010.64 1010.70 1010.79 1010.86 1010.95 1011.05 1011.11 1010.79 1011.32 1011.77 1012.19 1012.34 1012.58 1013.05 1013.55 1013.90 1014.28 1014.52 1014.72 1015.08 1015.66 1016.19 1016.50 1016.58 1016.98 1018.04 1018.22 1018.65
1005.40 1006.33 1006.46 1006.66 1007.19 1007.51 1007.98 1008.59 1009.13 1009.57 1010.10 1010.18 1010.29 1010.09 1010.29 1010.63 1010.58 1010.34 1010.52 1010.68 1010.73 1011.00 1010.90 1010.69 1011.14 1011.56 1012.18 1012.44 1012.86 1013.28 1013.56 1013.88 1014.32 1014.51 1014.84 1015.42 1016.09 1016.39 1016.61 1017.13 1017.74 1018.40 1019.28
1005.17 1005.86 1005.92 1006.34 1006.89 1006.80 1007.34 1008.11 1008.99 1009.13 1009.51 1010.20 1010.20 1009.68 1009.44 1009.45 1010.05 1009.92 1009.77 1010.50 1010.41 1010.35 1010.16 1010.75 1010.99 1010.94 1011.54 1012.28 1012.65 1013.04 1013.26 1013.60 1014.10 1014.20 1014.50 1015.11 1015.70 1016.20 1016.90 1017.28 1017.85 1018.70 1019.57
1004.78 1005.10 1005.38 1005.68 1006.34 1006.55 1007.34 1008.06 1008.31 1008.53 1009.28 1010.02 1009.71 1009.81 1008.90 1008.45 1008.88 1009.56 1009.80 1009.98 1009.96 1009.94 1010.14 1010.49 1010.56 1010.98 1010.74 1011.25 1012.01 1012.84 1013.15 1013.35 1013.70 1014.09 1014.29 1014.77 1015.28 1015.92 1016.55 1017.09 1017.67 1018.61 1019.49
1004.20 1004.62 1005.08 1005.28 1005.95 1006.24 1007.04 1007.54 1008.16 1008.28 1008.82 1009.74 1010.07 1009.69 1008.47 1008.17 1008.53 1009.33 1009.73 1009.78 1009.88 1010.12 1010.25 1010.39 1010.70 1011.03 1011.15 1010.86 1011.61 1012.53 1013.04 1013.32 1013.48 1013.92 1014.27 1014.53 1015.14 1015.85 1016.46 1017.14 1018.07 1018.96 1019.85
1003.87 1004.55 1005.11 1005.26 1005.73 1006.06 1006.28 1007.11 1007.85 1007.83 1008.51 1009.09 1009.74 1009.90 1009.42 1009.14 1008.57 1009.17 1009.41 1009.53 1009.87 1010.02 1010.16 1010.40 1010.75 1011.16 1011.62 1011.64 1011.45 1011.85 1012.68 1013.16 1013.39 1013.76 1014.20 1014.45 1015.03 1015.82 1016.53 1017.60 1018.49 1019.33 1019.88
1003.89 1004.40 1004.67 1005.21 1005.59 1005.58 1006.29 1006.87 1007.29 1007.84 1008.49 1008.34 1008.09 1008.65 1009.41 1009.16 1009.37 1009.28 1009.07 1009.53 1009.98 1010.10 1010.18 1010.46 1010.63 1011.03 1011.58 1011.67 1011.11 1011.77 1012.68 1013.13 1013.39 1013.63 1014.09 1014.45 1015.10 1015.99 1016.95 1017.87 1018.54 1019.21 1019.73
1003.70 1004.04 1004.49 1004.87 1005.29 1005.60 1006.21 1006.81 1007.32 1007.81 1008.12 1008.07 1008.17 1008.48 1008.80 1008.66 1008.43 1009.20 1009.32 1009.37 1009.66 1010.00 1010.38 1010.56 1010.82 1011.00 1011.16 1010.85 1010.97 1012.05 1012.57 1013.07 1013.34 1013.62 1014.00 1014.37 1015.12 1016.12 1017.01 1017.81 1018.48 1019.07 1019.65
1003.11 1003.82 1004.16 1004.66 1005.43 1005.87 1006.23 1006.71 1007.29 1007.55 1008.03 1008.24 1008.58 1008.33 1008.28 1008.12 1008.05 1009.17 1009.40 1009.46 1009.70 1010.46 1010.71 1010.79 1010.82 1010.74 1010.11 1010.61 1010.98 1011.81 1012.57 1012.96 1013.31 1013.70 1014.01 1014.49 1015.30 1016.21 1017.07 1017.79 1018.60 1019.28 1019.94
1002.63 1003.71 1004.18 1004.81 1005.22 1005.74 1006.26 1006.78 1007.04 1007.35 1007.72 1008.10 1008.44 1008.59 1008.26 1008.22 1007.77 1008.94 1009.21 1009.53 1010.11 1010.57 1010.67 1010.55 1010.77 1010.76 1010.55 1010.84 1011.21 1012.00 1012.41 1013.01 1013.41 1013.84 1014.17 1014.85 1015.72 1016.65 1017.44 1018.22 1018.84 1019.45 1020.01
1003.09 1003.79 1004.32 1004.82 1005.31 1005.80 1006.27 1006.75 1006.59 1007.21 1007.51 1008.02 1008.25 1008.33 1008.40 1008.42 1007.75 1008.70 1009.35 1009.56 1009.98 1010.32 1010.52 1010.67 1010.52 1010.76 1010.78 1011.05 1011.30 1011.40 1011.93 1013.11 1013.59 1014.29 1014.78 1015.37 1016.14 1017.05 1017.92 1018.59 1019.11 1019.78 1020.29
1003.35 1004.06 1004.57 1005.03 1005.47 1005.81 1006.19 1006.60 1006.46 1006.99 1007.42 1007.74 1007.67 1007.81 1008.06 1008.23 1008.07 1009.22 1009.02 1009.56 1009.83 1010.01 1010.21 1010.33 1010.51 1010.68 1010.97 1011.14 1011.63 1011.73 1012.19 1013.28 1013.93 1014.60 1015.13 1015.98 1016.76 1017.61 1018.35 1018.98 1019.67 1020.26 1020.71
1003.68 1004.14 1004.59 1005.00 1005.33 1005.68 1006.03 1006.42 1006.59 1006.81 1007.00 1007.15 1007.22 1007.46 1007.66 1007.93 1007.73 1007.98 1008.29 1008.90 1009.42 1009.69 1009.78 1010.61 1010.85 1011.42 1011.55 1011.73 1011.99 1012.63 1013.09 1013.64 1014.64 1015.12 1015.78 1016.48 1017.40 1018.12 1018.80 1019.47 1020.08 1020.57 1020.94
1003.79 1004.16 1004.52 1004.78 1005.07 1005.35 1005.84 1006.00 1006.02 1006.13 1006.65 1007.01 1006.90 1007.11 1007.27 1007.49 1007.62 1007.93 1008.33 1008.50 1008.78 1009.24 1009.46 1010.34 1011.70 1012.14 1012.22 1012.38 1012.80 1013.24 1013.65 1014.31 1014.97 1015.82 1016.26 1017.16 1017.92 1018.58 1019.16 1019.89 1020.50 1020.86 1021.32
1003.93 1004.21 1004.49 1004.61 1004.80 1005.07 1005.40 1005.61 1005.77 1006.13 1006.87 1006.80 1006.67 1006.63 1006.84 1007.25 1007.50 1007.92 1008.26 1008.41 1008.64 1009.19 1009.70 1010.69 1011.87 1012.54 1012.97 1013.11 1013.49 1014.00 1014.43 1015.08 1015.89 1016.61 1017.23 1017.92 1018.66 1019.23 1019.78 1020.30 1020.87 1021.36 1021.68
1004.00 1004.30 1004.46 1004.49 1004.83 1005.13 1005.31 1005.61 1006.14 1005.99 1006.19 1006.32 1006.32 1006.25 1006.53 1006.78 1007.17 1007.85 1008.19 1008.30 1008.66 1009.26 1009.90 1011.14 1012.13 1012.73 1013.26 1013.77 1014.02 1014.41 1015.40 1016.00 1016.68 1017.60 1018.13 1018.86 1019.49 1020.16 1020.38 1021.00 1021.33 1021.69 1021.97
1004.06 1004.15 1004.41 1004.84 1005.08 1005.24 1005.62 1005.86 1005.86 1006.00 1006.53 1006.40 1006.49 1006.33 1006.52 1006.97 1007.38 1008.18 1008.15 1008.50 1008.83 1009.49 1010.35 1011.37 1012.22 1012.96 1013.60 1013.96 1014.35 1014.99 1015.59 1016.54 1017.57 1017.93 1018.86 1019.62 1020.01 1020.54 1021.04 1021.34 1021.64 1022.07 1022.40
1004.10 1004.31 1004.56 1004.84 1005.23 1005.36 1006.83 1006.89 1006.78 1006.55 1006.38 1006.54 1006.58 1006.61 1007.33 1007.91 1008.38 1008.82 1008.94 1009.04 1009.21 1009.58 1010.33 1011.18 1012.16 1012.87 1013.63 1014.09 1014.75 1015.20 1015.88 1016.61 1017.83 1018.98 1019.17 1019.85 1020.20 1020.82 1021.11 1021.34 1021.82 1022.29 1022.55
1004.59 1004.83 1004.96 1005.17 1005.46 1006.04 1007.09 1007.24 1007.18 1007.06 1006.90 1007.03 1007.22 1007.47 1007.66 1008.25 1008.67 1009.07 1009.52 1009.73 1010.05 1010.15 1010.55 1011.15 1012.06 1012.79 1013.48 1014.01 1014.46 1015.47 1016.28 1016.85 1017.71 1018.87 1019.10 1020.39 1020.84 1021.07 1021.33 1021.85 1022.21 1022.41 1022.64
1004.96 1005.19 1005.25 1005.47 1005.74 1006.79 1007.37 1007.48 1007.37 1007.29 1007.59 1007.77 1007.74 1007.82 1007.95 1008.57 1008.82 1009.09 1009.53 1009.93 1010.39 1010.89 1011.32 1011.63 1012.63 1013.35 1014.00 1014.55 1014.90 1015.60 1016.34 1017.37 1018.41 1019.12 1019.47 1020.40 1020.85 1020.68 1020.71 1021.42 1022.38 1022.55 1022.75
1005.11 1005.32 1005.32 1005.59 1006.03 1006.91 1007.75 1007.74 1007.67 1007.82 1008.02 1008.32 1008.54 1008.50 1008.60 1008.85 1009.39 1009.48 1009.44 1010.20 1011.01 1011.85 1012.11 1012.41 1013.24 1014.07 1014.76 1015.18 1015.27 1015.79 1016.92 1017.54 1018.46 1019.32 1019.56 1020.14 1020.86 1020.54 1020.44 1020.86 1021.63 1022.54 1022.91
1005.14 1005.08 1005.54 1006.02 1006.94 1007.10 1007.92 1007.95 1007.89 1008.09 1008.36 1008.76 1008.98 1009.24 1009.54 1009.71 1009.99 1010.09 1010.26 1010.83 1011.54 1012.23 1012.87 1013.81 1014.61 1015.23 1015.46 1015.98 1016.09 1016.32 1016.68 1017.38 1017.94 1018.76 1019.02 1019.29 1019.63 1019.45 1019.51 1019.73 1020.19 1021.74 1022.23
Wind_Speed
11 12 11 10 10 10 9 9 8 8 9 9 8 8 8 7 6 6 4 14 10 11 13 13 12 13 13 12 10 10 10 9 14 14 12 13 11 15 15 15 15 13 13
12 14 12 13 12 11 10 9 9 9 7 8 9 9 8 8 8 8 7 8 12 10 10 13 13 14 14 12 11 11 10 9 11 13 13 14 11 11 15 13 14 13 12
14 14 13 13 13 10 12 9 8 5 8 7 8 9 7 9 9 9 8 8 9 14 12 12 13 13 14 11 12 11 10 9 10 11 11 11 9 6 4 4 7 14 14
17 15 13 12 12 11 11 10 8 10 8 7 4 5 7 10 10 8 8 9 6 7 12 13 12 14 13 13 12 12 10 10 10 10 13 16 13 10 9 6 14 14 15
18 14 13 12 13 11 10 9 9 8 7 6 7 7 8 9 7 10 11 11 10 8 6 14 11 11 10 11 10 11 10 10 11 12 13 16 16 16 13 8 9 13 14
16 13 12 13 13 12 10 9 9 8 4 5 6 8 7 8 10 9 10 10 10 10 10 8 8 9 10 10 11 11 11 11 12 12 12 17 18 16 18 17 11 13 22
14 16 12 13 12 12 11 11 9 9 6 5 6 8 9 10 10 9 7 9 10 11 10 7 7 3 9 10 8 8 9 11 12 13 12 17 18 16 13 15 20 24 24
16 14 14 12 14 11 11 9 11 7 5 6 4 5 9 5 6 7 8 8 11 8 9 9 9 8 7 9 11 9 8 10 13 14 12 14 15 17 16 18 19 26 27
14 14 13 11 12 10 10 12 10 9 5 4 6 6 5 4 2 3 5 7 8 7 7 8 9 10 4 3 10 9 9 9 12 14 12 14 16 16 16 17 25 26 27
10 9 12 12 12 11 10 10 8 8 5 6 3 7 10 7 5 3 3 6 6 8 9 7 8 9 4 6 6 8 13 9 10 13 14 16 17 18 21 30 30 28 26
10 13 13 12 12 10 10 11 7 6 5 8 6 6 6 8 7 7 4 3 3 3 5 5 6 6 3 6 8 9 11 9 9 11 12 14 17 23 31 30 29 25 25
8 11 13 12 12 9 9 7 7 7 7 5 5 4 6 5 7 5 5 4 4 3 2 2 6 7 10 11 2 11 11 9 9 9 12 14 22 29 30 29 28 26 24
10 12 13 11 9 9 8 8 7 7 8 7 8 6 5 6 3 5 5 2 2 1 0 1 2 5 6 6 8 8 10 10 9 10 14 17 25 26 27 26 25 23 22
11 14 11 11 10 9 8 7 7 7 8 8 8 8 3 6 4 3 4 3 4 1 1 3 4 6 6 6 6 8 10 10 11 12 14 19 26 24 23 21 20 19 20
11 12 11 10 9 9 9 8 6 8 7 7 8 7 5 5 5 5 3 3 3 3 3 5 4 6 5 6 7 8 10 12 15 15 19 21 23 22 20 18 15 13 13
12 12 11 10 9 9 9 8 7 7 7 6 5 7 6 5 6 5 6 5 3 2 3 5 3 7 6 5 5 6 8 13 20 21 22 20 19 17 15 13 11 10 10
11 10 10 10 9 8 8 7 7 7 9 7 7 7 8 8 7 8 8 7 6 5 7 5 5 4 6 8 8 8 9 10 11 21 21 20 16 15 14 13 11 11 12
10 10 10 9 8 8 8 8 9 8 5 7 9 8 8 7 8 5 5 7 6 6 5 10 4 2 4 8 8 9 7 7 11 16 21 19 17 14 14 13 12 13 13
10 10 9 8 6 6 6 6 4 6 4 8 10 9 8 9 9 7 7 7 5 6 5 8 4 2 3 4 7 8 9 10 8 19 17 17 14 15 13 13 12 11 13
10 8 6 6 4 5 1 3 6 6 7 7 8 8 8 9 9 8 7 7 7 7 9 8 5 4 3 4 7 10 9 9 11 9 13 11 11 13 13 12 12 11 10
9 8 6 5 4 3 2 2 3 6 5 4 6 7 7 3 6 7 5 7 6 8 9 10 6 5 6 5 9 7 11 10 10 10 10 8 7 8 7 10 9 10 9
8 8 6 5 4 4 5 5 7 4 6 6 5 4 7 8 8 4 4 4 8 11 12 10 7 9 8 9 9 10 12 12 7 5 8 6 6 6 5 4 8 9 8
8 7 6 5 4 6 5 2 4 4 2 4 5 7 7 6 9 9 8 10 10 10 10 11 12 12 13 13 13 13 13 10 8 7 11 5 3 6 4 5 7 8 9
7 6 5 5 5 6 5 2 0 6 6 5 4 7 8 9 8 11 12 11 11 11 12 10 11 10 10 11 13 12 11 10 10 7 7 4 4 8 7 7 6 7 8
5 6 5 4 6 7 4 3 5 7 6 6 5 4 8 6 9 9 12 11 11 8 11 14 14 15 13 11 10 14 11 11 9 5 5 4 5 6 7 8 8 9 6
6 5 6 6 6 6 4 4 5 4 7 6 4 7 5 6 7 7 12 11 10 10 13 13 12 13 12 9 10 9 11 11 9 7 8 8 10 9 7 7 7 9 9
Wind_Direction
202 201 205 204 189 208 186 216 197 226 214 225 240 239 248 246 254 261 263 163 205 235 239 235 235 233 233 231 224 214 209 196 204 202 208 206 226 200 202 192 192 187 183
200 202 203 205 204 193 207 198 225 199 217 228 219 241 249 257 238 248 245 179 185 220 235 241 236 236 228 224 216 207 206 191 202 207 195 220 206 204 210 199 195 190 175
210 210 205 204 207 204 199 210 231 216 216 223 243 244 243 258 257 244 242 249 183 193 219 227 234 226 226 220 211 207 200 184 196 205 198 191 186 125 127 215 215 189 163
221 201 212 207 207 201 200 207 195 215 221 223 259 271 249 250 246 257 253 257 243 248 189 203 221 223 225 229 214 205 196 181 177 191 186 185 171 166 186 194 225 190 163
211 219 216 207 206 206 200 195 212 225 215 222 235 243 245 253 258 252 236 234 240 261 249 168 193 208 202 196 208 212 204 189 174 183 195 176 166 177 167 179 244 175 153
206 203 213 213 198 208 195 204 208 203 215 233 252 253 280 279 267 249 245 248 232 232 237 243 183 189 185 185 196 207 204 189 180 189 184 178 175 181 170 190 192 151 129
195 198 214 202 201 205 200 184 196 204 208 223 245 253 255 233 241 253 239 239 236 224 219 197 211 247 174 177 190 206 213 184 188 187 189 182 183 180 173 178 166 142 139
198 200 211 191 196 195 191 180 194 191 207 201 257 289 270 210 220 225 237 230 231 220 220 205 215 200 224 176 185 186 200 181 189 180 186 179 185 174 172 151 147 144 136
196 203 199 195 183 194 181 188 190 194 211 185 246 260 273 262 169 199 235 230 234 216 215 202 182 193 211 230 144 165 178 180 187 180 178 181 177 170 156 141 137 132 128
176 178 187 190 178 189 178 182 185 216 202 216 186 248 270 298 283 220 223 226 221 212 197 188 184 179 184 251 207 95 160 179 182 181 176 177 173 162 143 135 135 138 143
172 177 182 173 181 192 169 184 180 193 207 251 212 175 229 237 235 261 262 197 194 169 185 178 178 161 216 234 182 151 157 173 175 179 172 174 161 151 144 145 148 149 155
163 168 170 172 171 179 170 169 183 200 232 212 250 235 216 219 226 228 247 188 171 142 156 184 167 179 191 200 172 132 151 162 168 168 161 157 147 151 153 154 153 153 158
161 160 163 161 166 163 163 174 180 182 196 208 211 227 230 245 221 221 237 161 162 139 123 187 210 198 215 157 161 155 144 158 156 146 143 139 151 155 154 151 152 156 158
152 153 160 160 154 156 159 166 179 201 190 206 206 233 232 262 212 159 221 178 149 139 129 132 204 187 207 168 122 143 152 149 139 152 130 143 145 149 147 142 153 157 169
132 149 152 149 150 158 167 168 199 200 198 204 213 220 215 240 227 151 137 165 152 146 168 194 160 179 166 163 132 173 153 153 131 136 130 135 142 141 144 150 148 157 152
135 143 142 147 158 168 174 191 184 195 199 212 212 208 209 200 220 133 176 186 199 225 141 165 153 155 150 136 99 141 121 140 133 139 136 134 132 132 137 139 135 147 138
137 144 149 156 164 171 183 193 205 205 211 205 221 205 205 190 204 183 205 181 186 202 165 119 106 115 129 143 122 108 136 136 134 136 134 125 121 131 126 125 129 118 120
143 144 150 157 165 179 187 209 218 216 206 216 210 201 198 188 195 187 212 203 193 173 181 147 106 71 67 111 115 114 111 123 138 135 124 124 129 120 122 119 124 128 123
140 146 152 164 175 192 209 227 243 200 202 244 213 193 201 187 191 197 191 203 193 162 141 135 109 80 68 102 91 85 100 100 107 115 106 101 105 108 111 111 117 124 124
147 152 167 164 157 196 225 220 200 210 214 209 198 198 203 189 188 181 199 193 182 152 124 124 109 110 96 97 106 116 104 109 108 108 82 95 107 97 105 118 114 123 136
157 157 151 135 165 144 101 310 188 168 166 229 196 199 196 139 114 166 182 191 169 138 138 136 123 118 127 130 129 126 114 116 108 116 115 113 116 113 104 92 114 132 135
155 141 129 119 112 79 59 352 325 146 191 200 201 157 109 106 98 82 49 170 146 166 154 145 139 142 136 127 134 131 127 125 122 111 117 89 114 106 119 141 119 132 136
142 145 118 115 87 71 58 31 302 95 133 140 141 145 147 120 153 147 101 99 78 57 138 153 147 151 144 148 138 136 136 130 120 137 124 78 111 122 141 129 112 141 162
155 128 128 96 75 72 61 96 189 111 100 96 114 146 135 146 156 151 151 144 143 140 140 147 143 134 133 140 140 131 116 103 106 109 119 94 172 161 169 136 152 166 177
148 148 114 99 78 90 78 83 86 115 94 92 85 101 134 147 139 169 144 125 110 85 61 97 108 107 105 103 126 126 125 133 126 130 171 114 185 174 177 177 167 190 187
164 148 115 87 67 110 96 89 122 103 115 118 109 129 140 116 135 155 131 132 117 124 115 109 105 97 105 101 93 115 136 139 142 147 180 164 181 172 186 193 180 177 195